Location: Newark
(43.0000°N, 1.6781°W)
Time: 21:45:53
(UTC+00:00)

Vanguard 1 - Pass Details

Date: 02 December 2021
Orbit: 652 x 3830 km, 34.2° (Epoch: 16 January)

Event Time Altitude Azimuth Distance (km) Brightness Sun altitude
Exits shadow 00:24:15 23° 94° (E) 5,337 13.7 -68.2°
Drops below altitude 10° 00:29:05 10° 86° (E) 6,032 14.1 -67.9°
Sets 00:33:13 0° 82° (E) 6,719 14.5 -67.6°
